This demonstration page uses our WeatherBlox Daily Observations layout. Learn more.

Left ArrowRight Arrow

Hourly Observations for March 25, 2021

Temp ( °F °C ) Dew Point ( °F °C ) Humidity (%) Winds ( mph kmh ) Pressure ( in mb ) Visibility ( mi km ) Precip ( " mm )
12:53 am 00:53 Clear 60 15.6 56 13.3 86 86 Calm 30.00 1016 10 16 0.00 0.00
1:53 am 01:53 Clear 59 15 55 12.8 87 87 Calm 29.98 1015 10 16 0.00 0.00
2:53 am 02:53 Mostly Cloudy 59 15 56 13.3 90 90 Calm 29.96 1015 10 16 0.00 0.00
3:53 am 03:53 Mostly Cloudy 59 15 56 13.3 90 90 Calm 29.97 1015 10 16 0.00 0.00
4:53 am 04:53 Mostly Clear 61 16.1 57 13.9 87 87 Calm 29.93 1014 10 16 0.00 0.00
5:53 am 05:53 Cloudy with Light Rain 62 16.7 59 15 90 90 E 6 9 29.94 1014 10 16 0.02 0.51
6:53 am 06:53 Cloudy with Light Rain 62 16.7 60 15.6 93 93 SE 6 9 29.97 1015 7 11 0.04 1.02
7:53 am 07:53 Mostly Cloudy 62 16.7 60 15.6 93 93 SSE 9 15 29.96 1015 10 16 0.08 2.03
8:49 am 08:49 Cloudy with Light Rain 63 17 57 14 83 83 WSW 3 6 29.98 1015 3 4 0.07 1.78
8:53 am 08:53 Cloudy with Heavy Rain 61 16.1 58 14.4 90 90 S 3 6 29.97 1015 3 4 0.13 3.30
9:02 am 09:02 Cloudy 61 16.1 58 14.4 90 90 undefined N/A 29.97 1015 7 11 0.01 0.25
9:53 am 09:53 Cloudy 63 17.2 60 15.6 90 90 ESE 8 13 29.93 1013 10 16 0.01 0.25
10:53 am 10:53 Cloudy 64 17.8 60 15.6 87 87 VRB 6 9 29.91 1013 10 16 0.01 0.25
11:17 am 11:17 Cloudy 66 18.9 60 15.6 81 81 SE 10 17 29.90 1013 10 16 0.00 0.00
11:36 am 11:36 Mostly Cloudy 67 19.4 60 15.6 79 79 SSE 10 17 29.90 1013 10 16 0.00 0.00
11:53 am 11:53 Mostly Cloudy 68 20 60 15.6 76 76 S 12 19 29.89 1012 10 16 0.00 0.00
12:45 pm 12:45 Cloudy 71 21.7 61 16.1 71 71 S 10 17 29.87 1012 10 16 0.00 0.00
12:53 pm 12:53 Cloudy 72 22.2 61 16.1 68 68 S 14 22 29.88 1012 10 16 0.00 0.00
1:01 pm 13:01 Cloudy 72 22.2 61 16.1 68 68 S 14 22 29.87 1012 10 16 0.00 0.00
1:53 pm 13:53 Cloudy 72 22.2 61 16.1 68 68 SSW 10 17 29.91 1013 10 16 0.00 0.00
2:53 pm 14:53 Cloudy 74 23.3 62 16.7 67 67 S 9 15 29.88 1012 10 16 0.00 0.00
3:53 pm 15:53 Cloudy 75 23.9 63 17.2 66 66 SSW 8 13 29.86 1011 10 16 0.00 0.00
4:53 pm 16:53 Cloudy with Light Rain 75 23.9 63 17.2 66 66 S 9 15 29.85 1011 10 16 0.00 0.00
5:53 pm 17:53 Cloudy 75 23.9 63 17.2 66 66 S 7 11 29.84 1011 10 16 0.00 0.00
6:53 pm 18:53 Cloudy with Light Rain 74 23.3 63 17.2 69 69 SSE 7 11 29.82 1010 10 16 0.00 0.00
7:53 pm 19:53 Mostly Cloudy 76 24.4 62 16.7 62 62 S 12 19 29.82 1010 10 16 0.00 0.00
8:53 pm 20:53 Mostly Cloudy 75 23.9 62 16.7 64 64 SSE 9 15 29.83 1010 10 16 0.00 0.00
8:58 pm 20:58 Mostly Cloudy with Thunderstorms 75 23.9 62 16.7 64 64 SSE 8 13 29.83 1010 10 16 0.00 0.00
9:34 pm 21:34 Cloudy with Nearby Thunderstorms 74 23.3 63 17.2 69 69 S 13 20 29.81 1009 9 14 0.01 0.25
9:46 pm 21:46 Cloudy with Rain 71 21.7 65 18.3 81 81 WSW 15 24 29.88 1012 3 4 0.12 3.05
9:53 pm 21:53 Cloudy with Light Rain 69 20.6 65 18.3 87 87 SSW 8 13 29.89 1012 9 14 0.12 3.05
10:53 pm 22:53 Cloudy with Light Rain 69 20.6 67 19.4 93 93 Calm 29.88 1012 10 16 0.02 0.51
11:53 pm 23:53 Cloudy with Light Rain 73 22.8 65 18.3 76 76 S 9 15 29.84 1011 10 16 0.00 0.00

Powered by AerisWeather